Location: Savignano sul Rubicone
(44.0950°N, 12.4090°E)
Time: 21:36:03
(UTC+01:00)

N. Korean satellite - Visible Passes

Search period start: 15 December 2019 00:00
Search period end: 25 December 2019 00:00
Orbit: 455 x 507 km, 97.2° (Epoch: 14 December)

Date Brightness Start Highest point End Pass type
(mag) Time Alt. Az. Time Alt. Az. Time Alt. Az.
15 Dec 8.7 05:28:57 10° NE 05:31:59 27° E 05:34:58 10° SSE visible
15 Dec 7.9 07:02:43 10° NNW 07:05:12 18° WNW 07:07:40 10° WSW visible
15 Dec 8.2 17:38:25 10° S 17:41:55 39° W 17:45:23 10° NNW visible
16 Dec 9.8 05:04:32 10° ENE 05:06:21 14° E 05:08:11 10° ESE visible
16 Dec 7.0 06:36:42 10° N 06:39:56 36° WNW 06:43:06 10° SW visible
16 Dec 6.7 17:12:44 10° SSE 17:16:26 85° WSW 17:20:07 10° NNW visible
17 Dec 6.3 06:11:04 10° N 06:14:34 80° WNW 06:17:59 10° SSW visible
17 Dec 10.0 18:22:58 10° WSW 18:24:39 13° W 18:26:21 10° WNW visible
18 Dec 7.6 05:45:43 10° NNE 05:49:05 45° E 05:52:23 10° S visible
18 Dec 9.2 17:55:59 10° SSW 17:59:02 24° W 18:02:05 10° NW visible
19 Dec 9.1 05:20:47 10° NE 05:23:32 21° E 05:26:14 10° SSE visible
19 Dec 7.6 06:54:06 10° NNW 06:56:51 22° WNW 06:59:36 10° WSW visible
19 Dec 7.6 17:29:56 10° S 17:33:31 50° W 17:37:04 10° NNW visible
20 Dec 10.0 04:57:01 10° ENE 04:57:52 11° E 04:58:42 10° ESE visible
20 Dec 6.7 06:28:12 10° N 06:31:32 45° WNW 06:34:49 10° SSW visible
20 Dec 6.5 17:04:24 10° SSE 17:08:03 75° ENE 17:11:41 10° N visible
21 Dec 6.5 06:02:40 10° NNE 06:06:08 79° ESE 06:09:33 10° S visible
21 Dec 9.8 18:13:56 10° SW 18:16:12 16° W 18:18:26 10° NW visible
22 Dec 8.1 05:37:25 10° NNE 05:40:38 35° E 05:43:47 10° SSE visible
22 Dec 8.7 17:47:21 10° SSW 17:50:36 30° W 17:53:50 10° NNW visible
23 Dec 9.4 05:12:40 10° NE 05:15:02 17° E 05:17:22 10° SE visible
23 Dec 7.3 06:45:29 10° N 06:48:28 28° WNW 06:51:25 10° SW visible
23 Dec 7.1 17:21:29 10° S 17:25:05 64° W 17:28:40 10° NNW visible
24 Dec 6.4 06:19:43 10° N 06:23:07 59° WNW 06:26:29 10° SSW visible
